Location: Augirein
(42.9320°N, 0.9181°E)
Time: 15:51:44
(UTC+00:00)

SL-19 R/B - Pass Details

Date: 20 June 2021
Orbit: 796 x 1009 km, 99.4° (Epoch: 03 August)

Event Time Altitude Azimuth Distance (km) Brightness Sun altitude
Rises 02:25:41 0° 10° (N) 3,322 8.5 -15.4°
Reaches altitude 10° 02:28:01 10° 6° (N) 2,399 7.5 -15.2°
Maximum altitude 02:33:09 55° 290° (WNW) 991 4.4 -14.6°
Enters shadow 02:36:42 21° 220° (SW) 1,816 5.3 -14.2°
